Location: Almena Post Office
(39.8928°N, 99.7066°W)
Time: 06:16:27
(UTC+00:00)

USA 116 - Pass Details

Date: 27 February 2020
Orbit: 405 x 834 km, 97.9° (Epoch: 18 November)

Event Time Altitude Azimuth Distance (km) Brightness Sun altitude
Rises 12:37:08 0° 179° (S) 2,322 7.0 -8.2°
Reaches altitude 10° 12:39:09 10° 186° (S) 1,459 5.9 -7.8°
Maximum altitude 12:42:05 43° 260° (W) 583 3.4 -7.2°
Drops below altitude 10° 12:45:08 10° 334° (NNW) 1,502 5.7 -6.6°
Sets 12:47:14 0° 341° (NNW) 2,404 6.7 -6.2°
